FW7665 Weather Reports


Display with metric or nautical units.
time (UTC)temp
F
wind
direction
speed
MPH
gust
MPH
rain 1hr
in
rain 24hr
in
rain mn
in
humidity
%
barometer
mb
20260831001829 62 277 1.0 4.0 0.00 0.03 0.03 52 1023.9
20260831000908 61 294 0.0 3.0 0.00 0.03 0.03 60 1023.9
20260831000012 61 295 1.0 3.0 0.00 0.03 0.03 57 1023.9
20260830235408 61 300 0.0 2.0 0.00 0.03 0.03 62 1023.9
20260830234507 62 337 0.0 2.0 0.00 0.03 0.03 57 1023.9
20260830233608 63 4 1.0 11.0 0.00 0.03 0.03 51 1023.9
20260830232708 63 174 2.0 8.0 0.00 0.03 0.03 51 1023.9
20260830231829 63 304 1.0 3.0 0.00 0.03 0.03 53 1023.9
20260830230907 64 264 2.0 4.0 0.00 0.03 0.03 49 1023.9
20260830230007 65 339 2.0 9.0 0.00 0.03 0.03 48 1023.9
20260830225407 65 70 2.0 6.0 0.00 0.03 0.03 50 1023.9
20260830224507 65 288 2.0 8.0 0.00 0.03 0.03 50 1023.9
20260830223607 65 263 3.0 8.0 0.00 0.03 0.03 47 1023.9
20260830222707 65 258 3.0 8.0 0.00 0.03 0.03 49 1023.9
20260830221807 64 267 2.0 7.0 0.00 0.03 0.03 50 1023.9
20260830220907 63 240 3.0 8.0 0.00 0.03 0.03 49 1023.9
20260830220011 63 256 2.0 5.0 0.00 0.03 0.03 53 1023.9
20260830215407 63 283 2.0 9.0 0.00 0.03 0.03 55 1023.9
20260830214528 63 294 3.0 9.0 0.00 0.03 0.03 54 1023.9
20260830213607 63 254 2.0 9.0 0.00 0.03 0.03 55 1023.9
20260830212709 64 244 3.0 8.0 0.00 0.03 0.03 54 1023.9
20260830211807 63 75 1.0 8.0 0.00 0.03 0.03 61 1023.9
20260830210907 63 359 1.0 4.0 0.00 0.03 0.03 59 1023.9
20260830210028 61 269 1.0 7.0 0.02 0.03 0.03 73 1023.9
20260830205428 60 252 2.0 7.0 0.03 0.03 0.03 67 1023.9
20260830204507 57 274 0.0 6.0 0.03 0.03 0.03 78 1023.9
20260830203607 55 251 1.0 6.0 0.03 0.03 0.03 81 1023.9
20260830202728 55 237 1.0 4.0 0.03 0.03 0.03 83 1023.9
20260830201807 55 116 0.0 4.0 0.03 0.03 0.03 86 1023.9
20260830200907 55 239 1.0 6.0 0.03 0.03 0.03 82 1023.9
20260830200007 61 264 4.0 14.0 0.01 0.01 0.02 64 1023.9
20260830195406 67 249 2.0 10.0 0.00 0.00 0.00 49 1023.9
20260830194506 68 200 1.0 4.0 0.00 0.00 0.00 51 1023.9
20260830193607 65 268 1.0 4.0 0.00 0.00 0.00 58 1023.9
20260830192709 65 282 2.0 6.0 0.00 0.00 0.00 58 1023.9
20260830191806 65 282 2.0 6.0 0.00 0.00 0.00 57 1023.9
20260830190906 66 304 2.0 6.0 0.00 0.00 0.00 50 1023.9
20260830190007 67 358 2.0 6.0 0.00 0.00 0.00 48 1023.9
20260830185406 67 356 2.0 7.0 0.00 0.00 0.00 45 1023.9
20260830184507 68 36 2.0 5.0 0.00 0.00 0.00 42 1023.9
20260830183607 69 85 2.0 7.0 0.00 0.00 0.00 48 1023.9
20260830182707 69 107 2.0 7.0 0.00 0.00 0.00 47 1023.9
20260830181806 70 100 3.0 7.0 0.00 0.00 0.00 43 1023.9
20260830180907 69 86 2.0 6.0 0.00 0.00 0.00 39 1023.9
20260830180007 70 94 3.0 9.0 0.00 0.00 0.00 44 1023.9
20260830175406 71 84 2.0 8.0 0.00 0.00 0.00 39 1023.9
20260830174506 71 119 4.0 10.0 0.00 0.00 0.00 41 1023.9
20260830173607 70 81 3.0 10.0 0.00 0.00 0.00 42 1023.9
20260830172707 70 74 2.0 7.0 0.00 0.00 0.00 44 1023.9
20260830171806 71 57 3.0 12.0 0.00 0.00 0.00 40 1024.6
20260830170927 71 112 3.0 8.0 0.00 0.00 0.00 44 1024.6
20260830170006 70 57 2.0 5.0 0.00 0.00 0.00 44 1024.6
20260830165406 70 115 2.0 4.0 0.00 0.00 0.00 44 1024.6
20260830164527 69 138 1.0 3.0 0.00 0.00 0.00 48 1024.6
20260830163627 68 112 2.0 4.0 0.00 0.00 0.00 49 1024.6
20260830162727 67 127 3.0 7.0 0.00 0.00 0.00 53 1024.6
20260830161807 66 83 2.0 7.0 0.00 0.00 0.00 53 1024.6
20260830160906 65 94 2.0 7.0 0.00 0.00 0.00 57 1024.6
20260830160006 63 127 2.0 7.0 0.00 0.00 0.00 58 1024.6
20260830155406 62 124 1.0 4.0 0.00 0.00 0.00 63 1024.6
20260830154506 60 103 1.0 4.0 0.00 0.00 0.00 71 1024.6
20260830153606 57 0 0.0 0.0 0.00 0.00 0.00 78 1024.6
20260830152705 56 229 0.0 2.0 0.00 0.00 0.00 78 1024.6
20260830151806 55 228 0.0 3.0 0.00 0.00 0.00 79 1024.7
20260830150906 54 215 1.0 7.0 0.00 0.00 0.00 79 1024.7
20260830150006 53 0 0.0 0.0 0.00 0.00 0.00 87 1024.7
20260830145406 53 0 0.0 0.0 0.00 0.00 0.00 87 1024.7
20260830144506 52 0 0.0 0.0 0.00 0.00 0.00 87 1024.7
20260830143606 52 0 0.0 0.0 0.00 0.00 0.00 87 1024.7
20260830142706 52 0 0.0 0.0 0.00 0.00 0.00 86 1024.7
20260830141806 51 0 0.0 0.0 0.00 0.00 0.00 86 1024.6
20260830140906 51 0 0.0 0.0 0.00 0.00 0.00 85 1024.6
20260830140005 50 0 0.0 0.0 0.00 0.00 0.00 85 1024.6
20260830135406 50 0 0.0 0.0 0.00 0.00 0.00 85 1024.6
20260830134526 50 0 0.0 0.0 0.00 0.00 0.00 85 1024.6
20260830133605 49 0 0.0 0.0 0.00 0.00 0.00 84 1024.6
20260830132705 49 0 0.0 0.0 0.00 0.00 0.00 85 1024.6
20260830131805 48 0 0.0 0.0 0.00 0.00 0.00 85 1024.0
20260830130905 48 0 0.0 0.0 0.00 0.00 0.00 85 1024.0
20260830130005 48 0 0.0 0.0 0.00 0.00 0.00 85 1024.0
20260830125405 48 159 0.0 1.0 0.00 0.00 0.00 85 1024.0
20260830124526 48 0 0.0 0.0 0.00 0.00 0.00 85 1024.0
20260830123605 48 0 0.0 0.0 0.00 0.00 0.00 85 1024.0
20260830122726 48 0 0.0 0.0 0.00 0.00 0.00 85 1024.0
20260830121805 48 0 0.0 0.0 0.00 0.00 0.00 85 1023.3
20260830120905 48 0 0.0 0.0 0.00 0.00 0.00 84 1023.3
20260830120026 48 0 0.0 0.0 0.00 0.00 0.00 84 1023.3
20260830115405 48 0 0.0 0.0 0.00 0.00 0.00 84 1023.3
20260830114505 48 0 0.0 0.0 0.00 0.00 0.00 83 1023.3
20260830113605 48 0 0.0 0.0 0.00 0.00 0.00 83 1023.3
20260830112705 48 0 0.0 0.0 0.00 0.00 0.00 82 1023.3
20260830111805 48 0 0.0 0.0 0.00 0.00 0.00 83 1023.3
20260830110905 48 0 0.0 0.0 0.00 0.00 0.00 83 1023.3
20260830110006 48 0 0.0 0.0 0.00 0.00 0.00 83 1023.5
20260830105405 48 0 0.0 0.0 0.00 0.00 0.00 83 1023.5
20260830104505 48 0 0.0 0.0 0.00 0.00 0.00 82 1023.5
20260830103605 48 0 0.0 0.0 0.00 0.00 0.00 82 1023.5
20260830102726 48 0 0.0 0.0 0.00 0.00 0.00 82 1023.5
20260830101805 48 0 0.0 0.0 0.00 0.00 0.00 82 1023.5
20260830100905 48 159 0.0 2.0 0.00 0.00 0.00 81 1023.5
20260830100020 49 0 0.0 0.0 0.00 0.00 0.00 81 1023.5
20260830095425 49 0 0.0 0.0 0.00 0.00 0.00 81 1023.5
20260830094505 49 0 0.0 0.0 0.00 0.00 0.00 80 1023.5
20260830093605 49 0 0.0 0.0 0.00 0.00 0.00 80 1023.5
20260830092705 49 0 0.0 0.0 0.00 0.00 0.00 79 1023.5
20260830091804 50 0 0.0 0.0 0.00 0.00 0.00 79 1023.5
20260830090904 50 0 0.0 0.0 0.00 0.00 0.00 79 1023.5
20260830090005 50 0 0.0 0.0 0.00 0.00 0.00 79 1023.9
20260830085404 50 0 0.0 0.0 0.00 0.00 0.00 78 1023.9
20260830084505 50 0 0.0 0.0 0.00 0.00 0.00 78 1023.9
20260830083604 50 0 0.0 0.0 0.00 0.00 0.00 78 1023.9
20260830082705 50 0 0.0 0.0 0.00 0.00 0.00 77 1023.9
20260830081804 50 0 0.0 0.0 0.00 0.00 0.00 77 1023.9
20260830080925 50 0 0.0 0.0 0.00 0.00 0.00 76 1023.9
20260830080004 50 0 0.0 0.0 0.00 0.00 0.00 77 1024.1
20260830075404 50 0 0.0 0.0 0.00 0.00 0.00 77 1024.1
20260830074504 50 0 0.0 0.0 0.00 0.00 0.00 76 1024.1
20260830073604 51 0 0.0 0.0 0.00 0.00 0.00 76 1024.1
20260830072704 51 0 0.0 0.0 0.00 0.00 0.00 76 1024.1
20260830071804 51 0 0.0 0.0 0.00 0.00 0.00 76 1024.7
20260830070925 51 0 0.0 0.0 0.00 0.00 0.00 76 1024.7
20260830070010 51 0 0.0 0.0 0.00 0.00 0.00 76 1024.7
20260830065404 51 0 0.0 0.0 0.00 0.00 0.00 74 1024.7
20260830064525 52 0 0.0 0.0 0.00 0.00 0.00 74 1024.7
20260830063604 52 0 0.0 0.0 0.00 0.00 0.00 73 1024.7
20260830062725 52 0 0.0 0.0 0.00 0.00 0.00 73 1024.7
20260830061804 52 0 0.0 0.0 0.00 0.00 0.00 72 1025.1
20260830060904 52 0 0.0 0.0 0.00 0.00 0.00 72 1025.1
20260830060008 53 0 0.0 0.0 0.00 0.00 0.00 72 1025.1
20260830055404 53 0 0.0 0.0 0.00 0.00 0.00 71 1025.1
20260830054504 53 0 0.0 0.0 0.00 0.00 0.00 70 1025.1
20260830053603 54 0 0.0 0.0 0.00 0.00 0.00 69 1025.1
20260830052704 54 0 0.0 0.0 0.00 0.00 0.00 68 1025.1
20260830051803 55 0 0.0 0.0 0.00 0.00 0.00 66 1025.5
20260830050904 56 0 0.0 0.0 0.00 0.00 0.00 66 1025.5
20260830050004 56 158 0.0 1.0 0.00 0.00 0.00 66 1025.5
20260830045424 56 158 0.0 1.0 0.00 0.00 0.00 65 1025.5
20260830044504 57 158 1.0 3.0 0.00 0.00 0.00 65 1025.5
20260830043603 57 158 0.0 2.0 0.00 0.00 0.00 62 1025.5
20260830042704 58 202 1.0 4.0 0.00 0.00 0.00 61 1025.5
20260830041804 58 255 1.0 6.0 0.00 0.00 0.00 60 1026.6
20260830040903 58 220 1.0 5.0 0.00 0.00 0.00 60 1026.6
20260830040004 58 244 2.0 5.0 0.00 0.00 0.00 60 1026.6
20260830035403 58 225 1.0 6.0 0.00 0.00 0.00 60 1026.6
20260830034503 58 254 2.0 6.0 0.00 0.00 0.00 60 1026.6
20260830033608 58 234 2.0 8.0 0.00 0.00 0.00 60 1026.6
20260830032708 58 296 2.0 7.0 0.00 0.00 0.00 60 1026.6
20260830031808 58 275 1.0 5.0 0.00 0.00 0.00 60 1026.6
20260830030930 58 286 1.0 3.0 0.00 0.00 0.00 59 1025.5
20260830030008 58 208 2.0 6.0 0.00 0.00 0.00 58 1025.5
20260830025429 58 206 1.0 6.0 0.00 0.00 0.00 58 1025.5
20260830024508 59 0 0.0 0.0 0.00 0.00 0.00 60 1025.5
20260830023608 59 199 1.0 3.0 0.00 0.00 0.00 59 1025.5
20260830022708 60 227 1.0 3.0 0.00 0.00 0.00 58 1025.5
20260830021808 60 199 0.0 3.0 0.00 0.00 0.00 58 1025.5
20260830020908 60 148 2.0 7.0 0.00 0.00 0.00 57 1025.5
20260830020008 61 198 2.0 5.0 0.00 0.00 0.00 56 1025.5
20260830015408 61 281 2.0 8.0 0.00 0.00 0.00 56 1025.5
20260830014508 62 299 2.0 8.0 0.00 0.00 0.00 57 1025.5
20260830013608 62 289 2.0 5.0 0.00 0.00 0.00 56 1025.5
20260830012708 63 260 3.0 7.0 0.00 0.00 0.00 54 1025.5
20260830011808 64 299 2.0 9.0 0.00 0.00 0.00 51 1025.5
20260830010908 65 269 3.0 7.0 0.00 0.00 0.00 51 1023.4
20260830010008 65 252 3.0 8.0 0.00 0.00 0.00 51 1023.4
20260830005408 66 261 3.0 11.0 0.00 0.00 0.00 50 1023.4
20260830004508 65 320 2.0 7.0 0.00 0.00 0.00 46 1023.4
20260830003608 66 14 0.0 2.0 0.00 0.00 0.00 48 1023.4
20260830002708 68 68 2.0 10.0 0.00 0.00 0.00 42 1023.4